Lid_Strength_Index
3 3 3 3 3 3 3 3 3 3 3 3 3 4 4 4 4 3 3 3 3 3 3 3 2 2 4 6 7 1 -1 -1 0 1 3 4 5 6 8 7 7 8 7 6 5 6 5
2 2 2 2 2 2 2 3 3 3 3 3 4 4 4 4 4 4 4 4 4 3 3 3 2 2 4 10 1 -0 1 1 1 2 3 3 5 4 6 6 7 6 6 6 5 5 5
2 2 2 2 2 2 2 3 3 3 3 3 4 4 4 4 4 4 4 4 4 3 3 2 2 2 4 6 3 2 1 1 1 2 3 2 3 5 6 6 4 6 8 7 6 6 7
2 2 2 2 2 2 3 3 3 3 3 3 4 4 4 4 4 4 4 4 4 3 2 1 1 2 6 3 2 3 1 2 1 1 2 2 2 5 6 5 6 8 8 11 7 7 6
2 2 2 2 2 2 3 3 3 3 4 4 4 4 4 4 4 4 5 4 4 2 1 0 3 4 6 -1 3 2 1 3 2 2 2 1 3 6 6 9 10 9 12 11 10 7 7
2 2 2 2 2 2 3 3 3 3 3 3 4 4 4 4 4 4 4 4 3 3 1 0 3 6 4 4 3 2 1 1 3 3 4 4 5 8 8 10 15 12 11 10 12 9 8
1 1 2 2 2 2 2 2 3 3 3 3 4 4 4 4 4 4 5 3 5 6 4 5 6 5 4 2 2 3 2 3 3 5 8 6 9 11 9 8 8 9 10 10 10 8 10
1 2 2 2 2 2 2 2 2 3 3 3 4 4 4 4 4 4 5 5 3 5 7 3 4 4 3 3 4 3 2 5 6 8 7 9 10 8 7 7 8 9 10 11 10 8 10
1 1 1 1 1 2 2 2 2 3 3 3 4 4 4 4 4 6 4 3 1 3 7 5 3 5 5 5 5 5 4 5 6 8 9 10 8 6 7 8 9 9 9 10 11 9 9
1 1 1 2 2 2 2 2 2 3 3 3 4 4 4 4 5 3 3 2 1 3 9 7 6 5 4 4 6 3 3 5 6 8 9 9 6 7 8 9 9 13 8 8 9 11 14
1 1 1 1 2 2 2 2 2 3 3 3 3 4 4 5 6 5 2 2 2 4 16 6 6 3 4 6 6 5 3 5 7 7 9 10 8 7 8 8 7 9 7 8 8 10 12
1 1 1 1 1 2 2 2 3 3 3 3 4 4 4 5 5 3 1 2 5 11 14 8 7 7 7 7 7 5 5 5 5 7 7 8 6 8 9 7 6 7 8 9 10 11 17
1 1 1 1 2 2 2 2 3 3 3 4 4 5 5 2 3 1 2 4 11 13 6 9 8 7 8 8 7 7 7 8 10 12 11 8 8 8 7 10 8 8 12 15 15 15 17
1 1 1 2 2 2 2 2 3 3 4 5 6 7 5 4 3 2 5 7 13 9 9 7 7 7 8 8 8 7 8 10 8 9 10 12 12 8 7 8 10 10 11 14 17 18 17
1 1 1 2 2 2 2 3 3 3 4 5 7 6 4 3 3 4 6 12 11 8 7 8 8 9 9 8 9 8 9 9 9 9 12 13 11 7 7 7 8 10 12 10 13 13 17
1 1 1 2 2 2 2 2 3 4 5 7 3 3 2 1 2 4 7 11 8 6 6 6 10 9 10 9 10 10 9 8 8 7 8 9 12 10 8 8 8 9 10 13 13 18 20
1 1 1 2 2 2 2 2 3 4 6 7 4 5 2 1 2 5 10 8 6 6 5 8 9 9 9 9 9 10 9 7 6 7 7 8 10 10 10 11 11 11 12 12 12 13 18
1 1 2 2 2 2 2 2 3 5 7 7 3 7 1 2 7 6 8 6 7 6 5 6 7 8 9 7 9 9 9 8 6 7 9 8 11 13 11 8 8 10 10 11 14 14 14
1 1 1 2 2 2 2 2 3 4 7 7 5 5 2 3 9 8 6 6 6 6 6 6 7 6 6 8 10 8 7 6 6 7 9 8 11 13 11 9 8 10 9 10 11 12 15
1 1 1 2 2 2 2 3 3 4 5 6 5 8 5 4 4 6 7 7 7 5 6 5 6 6 7 8 8 9 7 6 5 6 4 5 10 12 13 12 9 10 9 9 10 13 15
1 1 1 2 2 2 2 3 3 4 5 5 4 6 5 8 6 6 6 6 7 7 5 5 7 6 7 10 9 9 7 7 6 4 6 8 11 10 10 8 9 8 9 9 11 10 13
1 1 1 2 2 2 2 3 3 4 5 2 6 6 5 6 5 5 7 8 7 7 7 7 8 7 6 9 9 10 8 8 9 7 7 8 11 10 11 8 8 9 8 8 8 9 11
2 2 1 2 2 2 2 3 3 4 4 3 2 2 5 7 6 7 7 7 6 6 5 5 6 7 7 7 6 6 7 7 8 9 9 9 10 11 13 9 9 12 10 9 8 8 10
3 3 2 2 2 2 2 2 3 3 4 3 2 3 6 8 7 6 7 6 6 5 6 6 5 6 5 4 5 6 7 8 8 7 7 9 10 11 12 11 16 11 7 7 8 7 8
4 4 4 3 3 2 2 2 2 3 4 2 1 3 5 8 6 6 6 6 5 5 6 5 4 4 4 5 8 9 9 9 9 7 8 8 10 12 13 14 11 10 8 8 10 10 7
4 4 4 4 3 3 2 2 2 2 3 2 1 0 3 7 7 5 6 6 7 7 7 5 3 4 5 7 9 13 13 10 10 9 7 7 8 10 12 15 15 11 7 5 6 13 6
4 4 4 4 4 3 3 3 2 2 3 3 2 0 3 7 4 4 6 7 5 6 7 6 6 6 5 8 10 11 11 8 11 11 13 11 11 12 12 13 12 8 6 6 13 13 7
4 4 4 4 4 4 3 3 3 2 2 3 2 -0 2 5 5 3 3 5 5 6 8 6 7 7 7 10 10 10 11 10 11 10 11 12 13 14 13 14 16 7 7 11 9 7 6
4 4 4 4 4 3 3 3 3 3 3 3 2 -0 -0 4 4 2 2 2 2 3 5 5 6 6 6 9 9 9 11 10 11 12 8 12 10 12 12 12 7 7 6 6 5 6 6